Rochelle, IL

7:31 PM CDT on August 25, 2016 (GMT -0500)
Rochelle

Weather History for KRPJ - January, 2012

Change the Weather History Date:

Monday, January 30, 2012

  Actual Average (KRFD) Record (KRFD)
Temperature  
Mean Temperature 36 °F 22 °F  
Max Temperature 51 °F 30 °F 52 °F (1944)
Min Temperature 22 °F 14 °F -19 °F (1951)
Degree Days  
Heating Degree Days 28 43  
Month to date heating degree days 1308  
Since 1 July heating degree days 3869  
Cooling Degree Days 0 0  
Month to date cooling degree days 0  
Year to date cooling degree days 0  
Moisture  
Dew Point 30 °F    
Average Humidity 81    
Maximum Humidity 88    
Minimum Humidity 69    
Precipitation  
Precipitation 0.00 in 0.04 in 0.74 in (1938)
Month to date precipitation 1.33  
Year to date precipitation 1.33  
Snow  
Snow 0.00 in 0.40 in 6.00 in (1909)
Month to date snowfall 9.9  
Since 1 July snowfall 23.0  
Snow Depth -    
Sea Level Pressure  
Sea Level Pressure 29.92 in    
Wind  
Wind Speed 11 mph (South)    
Max Wind Speed 21 mph    
Max Gust Speed 28 mph    
Visibility 10 miles    
Events      
T = Trace of Precipitation, MM = Missing Value Source: NWS Daily Summary

Daily Weather History Graph

Daily Weather History Graph

Search for Another Location

Airport or City:

Trip Planner

Search our weather history database for the weather conditions in past years. The results will help you decide how hot, cold, wet, or windy it might be!

Date:

Astronomy

Jan. 30, 2012 Rise Set
Actual Time 7:11 AM CST 5:08 PM CST
Civil Twilight 6:41 AM CST 5:38 PM CST
Nautical Twilight 6:08 AM CST 6:11 PM CST
Astronomical Twilight 5:35 AM CST 6:44 PM CST
Moon 10:25 AM CST (1/30) 12:00 AM CST (1/30)
Length of Visible Light 10h 56m
Length of Day
9h 57m
Waxing Crescent, 46% of the Moon is Illuminated
Jan 30
Waxing Crescent
Jan 30
First Quarter
Feb 7
Full
Feb 14
Last Quarter
Feb 21
New

Hourly Weather History & Observations

Time (CST) Temp. Windchill Dew Point Humidity Pressure Visibility Wind Dir Wind Speed Gust Speed Precip Events Conditions
12:35 AM 22.8 °F 14.5 °F 19.0 °F 85% 30.17 in 10.0 mi SE 6.9 mph - N/A   Overcast
12:55 AM 23.4 °F 14.3 °F 18.7 °F 82% 30.16 in 10.0 mi SE 8.1 mph - N/A   Overcast
1:15 AM 23.7 °F 15.6 °F 19.0 °F 82% 30.15 in 10.0 mi SE 6.9 mph - N/A   Overcast
1:35 AM 23.9 °F 15.0 °F 20.1 °F 85% 30.14 in 10.0 mi ESE 8.1 mph - N/A   Overcast
1:55 AM 23.7 °F 13.3 °F 19.4 °F 84% 30.12 in 10.0 mi ESE 10.4 mph - N/A   Overcast
2:15 AM 23.9 °F 12.3 °F 19.4 °F 83% 30.11 in 10.0 mi ESE 12.7 mph - N/A   Overcast
2:35 AM 24.3 °F 12.7 °F 19.9 °F 84% 30.08 in 10.0 mi SE 12.7 mph - N/A   Overcast
2:55 AM 24.8 °F 13.4 °F 20.8 °F 85% 30.08 in 10.0 mi SE 12.7 mph - N/A   Overcast
3:15 AM 25.5 °F 13.8 °F 21.0 °F 83% 30.09 in 10.0 mi SSE 13.8 mph - N/A   Overcast
3:35 AM 25.3 °F 14.7 °F 21.2 °F 84% 30.08 in 10.0 mi SSE 11.5 mph - N/A   Overcast
3:55 AM 25.7 °F 12.7 °F 21.6 °F 84% 30.07 in 10.0 mi SSE 17.3 mph - N/A   Overcast
4:15 AM 25.7 °F 13.1 °F 21.7 °F 85% 30.06 in 10.0 mi SSE 16.1 mph - N/A   Overcast
4:35 AM 26.2 °F 13.8 °F 22.1 °F 84% 30.05 in 10.0 mi SE 16.1 mph - N/A   Overcast
4:55 AM 27.0 °F 15.2 °F 22.3 °F 83% 30.04 in 10.0 mi SE 15.0 mph - N/A   Overcast
5:15 AM 27.7 °F 15.2 °F 22.3 °F 80% 30.03 in 10.0 mi SE 17.3 mph 20.7 mph N/A   Overcast
5:35 AM 28.2 °F 16.8 °F 23.0 °F 81% 30.01 in 10.0 mi SE 15.0 mph - N/A   Overcast
6:15 AM 28.2 °F 15.5 °F 23.5 °F 83% 29.98 in 10.0 mi SE 18.4 mph - N/A   Overcast
6:35 AM 28.4 °F 15.8 °F 23.9 °F 83% 29.97 in 10.0 mi SE 18.4 mph 23.0 mph N/A   Overcast
6:55 AM 28.6 °F 17.2 °F 24.3 °F 84% 29.99 in 10.0 mi SSE 15.0 mph - N/A   Overcast
7:15 AM 28.9 °F 16.9 °F 24.6 °F 84% 29.97 in 10.0 mi SSE 17.3 mph 23.0 mph N/A   Overcast
7:35 AM 29.3 °F 17.0 °F 25.2 °F 85% 29.96 in 10.0 mi SSE 18.4 mph - N/A   Overcast
8:15 AM 31.1 °F 18.6 °F 26.4 °F 83% 29.94 in 10.0 mi SSE 20.7 mph 27.6 mph N/A   Overcast
8:35 AM 31.8 °F 20.6 °F 27.1 °F 83% 29.93 in 10.0 mi South 17.3 mph - N/A   Overcast
8:55 AM 32.0 °F 20.5 °F 27.9 °F 85% 29.92 in 10.0 mi South 18.4 mph 23.0 mph N/A   Mostly Cloudy
9:15 AM 32.9 °F 21.6 °F 28.4 °F 84% 29.92 in 10.0 mi South 18.4 mph 23.0 mph N/A   Mostly Cloudy
9:35 AM 34.2 °F 24.4 °F 29.3 °F 82% 29.91 in 10.0 mi South 15.0 mph - N/A   Scattered Clouds
9:55 AM 34.7 °F 24.0 °F 29.8 °F 82% 29.90 in 10.0 mi South 18.4 mph - N/A   Scattered Clouds
10:15 AM 34.9 °F 23.6 °F 30.2 °F 83% 29.88 in 10.0 mi South 20.7 mph 24.2 mph N/A   Scattered Clouds
10:35 AM 35.6 °F 25.5 °F 30.7 °F 82% 29.88 in 10.0 mi South 17.3 mph - N/A   Clear
10:55 AM 36.5 °F 27.0 °F 31.1 °F 81% 29.87 in 10.0 mi South 16.1 mph - N/A   Scattered Clouds
11:15 AM 36.7 °F 28.0 °F 31.8 °F 83% 29.85 in 10.0 mi South 13.8 mph - N/A   Clear
11:35 AM 37.9 °F 29.6 °F 32.0 °F 79% 29.84 in 10.0 mi SSW 13.8 mph - N/A   Clear
11:55 AM 38.8 °F 30.8 °F 32.9 °F 79% 29.84 in 10.0 mi SSW 13.8 mph - N/A   Clear
12:15 PM 41.9 °F 35.0 °F 34.2 °F 74% 29.84 in 10.0 mi SSW 12.7 mph - N/A   Clear
12:35 PM 43.3 °F 37.2 °F 35.8 °F 75% 29.82 in 10.0 mi SSW 11.5 mph - N/A   Clear
12:55 PM 45.0 °F 39.3 °F 36.9 °F 73% 29.81 in 10.0 mi SSW 11.5 mph - N/A   Clear
1:35 PM 48.2 °F - 38.7 °F 70% 29.80 in 10.0 mi SSW 12.7 mph - N/A   Clear
2:15 PM 50.0 °F - 40.3 °F 69% 29.78 in 10.0 mi SW 12.7 mph - N/A   Clear
2:35 PM 51.1 °F - 41.4 °F 69% 29.78 in 10.0 mi SW 11.5 mph - N/A   Clear
2:55 PM 51.1 °F - 41.9 °F 71% 29.79 in 10.0 mi SW 10.4 mph - N/A   Clear
3:15 PM 50.2 °F - 41.5 °F 72% 29.79 in 10.0 mi SW 9.2 mph - N/A   Clear
3:35 PM 49.5 °F - 41.9 °F 75% 29.80 in 10.0 mi SW 5.8 mph - N/A   Clear
3:55 PM 47.8 °F - 39.6 °F 73% 29.80 in 10.0 mi SW 8.1 mph - N/A   Clear
4:15 PM 45.3 °F 41.6 °F 39.2 °F 79% 29.80 in 10.0 mi SSW 6.9 mph - N/A   Clear
4:35 PM 44.4 °F 40.0 °F 38.5 °F 80% 29.80 in 10.0 mi SSW 8.1 mph - N/A   Clear
4:55 PM 43.0 °F 40.3 °F 37.4 °F 81% 29.81 in 10.0 mi SSW 4.6 mph - N/A   Clear
5:15 PM 40.5 °F 36.5 °F 36.0 °F 84% 29.82 in 10.0 mi SSW 5.8 mph - N/A   Clear
5:35 PM 37.8 °F 32.5 °F 34.2 °F 87% 29.82 in 10.0 mi SSW 6.9 mph - N/A   Clear
5:55 PM 38.5 °F 32.1 °F 33.8 °F 83% 29.82 in 10.0 mi South 9.2 mph - N/A   Clear
6:35 PM 38.3 °F - 34.0 °F 84% 29.83 in 10.0 mi Calm Calm - N/A   Clear
6:55 PM 39.4 °F 37.2 °F 34.2 °F 82% 29.83 in 10.0 mi SSE 3.5 mph - N/A   Clear
7:15 PM 38.7 °F 35.2 °F 33.8 °F 83% 29.84 in 10.0 mi SSE 4.6 mph - N/A   Clear
7:35 PM 37.9 °F 34.4 °F 33.3 °F 83% 29.84 in 10.0 mi SE 4.6 mph - N/A   Clear
7:55 PM 37.9 °F 34.4 °F 33.8 °F 85% 29.84 in 10.0 mi SSE 4.6 mph - N/A   Clear
8:15 PM 37.0 °F - 33.1 °F 86% 29.83 in 10.0 mi Calm Calm - N/A   Clear
8:35 PM 37.2 °F 33.6 °F 33.3 °F 86% 29.84 in 10.0 mi South 4.6 mph - N/A   Clear
8:55 PM 37.0 °F 32.4 °F 33.8 °F 88% 29.83 in 10.0 mi South 5.8 mph - N/A   Clear
9:15 PM 37.0 °F 31.6 °F 33.4 °F 87% 29.84 in 10.0 mi South 6.9 mph - N/A   Clear
9:35 PM 36.9 °F 30.7 °F 33.6 °F 88% 29.83 in 10.0 mi SSW 8.1 mph - N/A   Clear
9:55 PM 37.9 °F 31.5 °F 33.8 °F 85% 29.83 in 10.0 mi SSW 9.2 mph - N/A   Clear
10:15 PM 37.4 °F 31.4 °F 33.8 °F 87% 29.84 in 10.0 mi SSW 8.1 mph - N/A   Clear
10:35 PM 37.4 °F 30.8 °F 33.8 °F 87% 29.83 in 10.0 mi SSW 9.2 mph - N/A   Clear
10:55 PM 38.5 °F 32.1 °F 34.0 °F 84% 29.83 in 10.0 mi SSW 9.2 mph - N/A   Clear
11:15 PM 39.2 °F 32.0 °F 34.2 °F 82% 29.83 in 10.0 mi SSW 11.5 mph - N/A   Clear
11:55 PM 41.5 °F 33.8 °F 35.1 °F 78% 29.83 in 10.0 mi SSW 15.0 mph - N/A   Clear